Find Local Weather

World > North America > United States > Illinois

Chicago, Illinois Regional Weather

Lat: 41.88N, Lon: 87.63W
Wx Zone: ILZ014
Warning FLW WEATHER ALERT - (More Info. Click Here) Warning
Feedback
Expires:201810160000;;243098
ASUS43 KLOT 152309
RWRIL 

ILLINOIS REGIONAL WEATHER ROUNDUP
NATIONAL WEATHER SERVICE CHICAGO/ROMEOVILLE IL
600 PM CDT MON OCT 15 2018

NOTE: "FAIR" INDICATES FEW OR NO CLOUDS BELOW 12,000 FEET WITH NO
SIGNIFICANT WEATHER AND/OR OBSTRUCTIONS TO VISIBILITY.

* THESE STATIONS ARE NOT UNDER NWS QUALITY CONTROL. THEY ALSO MAY NOT
  REPORT WEATHER SUCH AS PRECIPITATION OR FOG.


ILZ005-006-012>014-019>023-160000-
NORTHEAST ILLINOIS
  
CITY           SKY/WX    TMP DP  RH WIND       PRES   REMARKS
CHICAGO-OHARE  FAIR      46  26  45 W15G22    30.21R                  
CHICAGO-MIDWAY FAIR      46  25  43 W13       30.22R                  
AURORA         FAIR      44  28  53 W10       30.23R                  
LANSING*       FAIR      45  28  50 W7        30.23R                  
JOLIET*        FAIR      47  29  50 W5        30.23S                  
WAUKEGAN       FAIR      43  23  45 W7        30.20R                  
DUPAGE AIRPORT FAIR      45  26  47 W13       30.21R                  
KANKAKEE*      FAIR      45  28  52 W13       30.26R                  
WHEELING       FAIR      46  24  42 W10       30.22R                  
MORRIS*        FAIR      45  28  52 W13       30.24R                  
ROMEOVILLE*    FAIR      44  30  57 W10       30.24R                  
NORTHERLY ISL    N/A     47  25  42 W14         N/A                   
$$


SKY/WX - Weather  TMP - Temperature  DP - Dew Point  RH - Relative Humidity
WIND - Wind Direction/Speed PRES - Barometric Pressure